GW6351 Weather Reports


time (UTC)temp
C
wind
direction
speed
KPH
gust
KPH
rain 1hr
cm
rain 24hr
cm
rain mn
cm
humidity
%
barometer
mb
20260505035510 14 272 9.7 27.4 0.00 0.00 0.00 42 1008.9
20260505035011 14 252 14.5 27.4 0.00 0.00 0.00 40 1008.7
20260505034546 14 285 14.5 24.1 0.00 0.00 0.00 38 1008.7
20260505034011 14 256 16.1 24.1 0.00 0.00 0.00 41 1008.6
20260505033512 14 304 11.3 19.3 0.00 0.00 0.00 42 1008.8
20260505033038 14 263 9.7 22.5 0.00 0.00 0.00 39 1008.8
20260505032513 14 275 14.5 22.5 0.00 0.00 0.00 39 1008.6
20260505032010 14 264 12.9 22.5 0.00 0.00 0.00 43 1008.6
20260505031551 15 267 9.7 19.3 0.00 0.00 0.00 38 1008.7
20260505031013 15 278 12.9 20.9 0.00 0.00 0.00 35 1008.5
20260505030511 15 238 11.3 17.7 0.00 0.00 0.00 36 1008.6
20260505030045 15 248 11.3 19.3 0.00 0.00 0.00 33 1008.8
20260505025516 15 280 11.3 20.9 0.00 0.00 0.00 33 1008.6
20260505025012 15 265 12.9 20.9 0.00 0.00 0.00 34 1008.6
20260505024540 16 252 11.3 20.9 0.00 0.00 0.00 33 1008.5
20260505024010 16 255 16.1 20.9 0.00 0.00 0.00 33 1008.5
20260505023511 16 256 14.5 25.7 0.00 0.00 0.00 32 1008.4
20260505023053 16 269 14.5 25.7 0.00 0.00 0.00 33 1008.4
20260505022515 16 243 14.5 24.1 0.00 0.00 0.00 34 1008.6
20260505022013 16 286 14.5 27.4 0.00 0.00 0.00 32 1008.4
20260505021544 16 259 14.5 25.7 0.00 0.00 0.00 31 1008.6
20260505021011 16 267 14.5 25.7 0.00 0.00 0.00 31 1008.6
20260505020513 16 252 17.7 25.7 0.00 0.00 0.00 30 1008.4
20260505020045 17 259 16.1 25.7 0.00 0.00 0.00 30 1008.4
20260505015511 17 254 16.1 25.7 0.00 0.00 0.00 31 1008.6
20260505015012 17 264 14.5 25.7 0.00 0.00 0.00 30 1008.4
20260505014545 17 248 14.5 27.4 0.00 0.00 0.00 30 1008.5
20260505014015 17 264 16.1 27.4 0.00 0.00 0.00 32 1008.6
20260505013513 17 280 16.1 22.5 0.00 0.00 0.00 31 1008.4
20260505013059 16 238 8.0 14.5 0.00 0.00 0.00 34 1008.6
20260505012512 16 244 8.0 16.1 0.00 0.00 0.00 33 1008.7
20260505012011 16 271 11.3 17.7 0.00 0.00 0.00 32 1008.8
20260505011540 16 261 11.3 17.7 0.00 0.00 0.00 32 1008.8
20260505011010 16 269 11.3 16.1 0.00 0.00 0.00 33 1008.8
20260505010517 16 270 8.0 16.1 0.00 0.00 0.00 33 1008.9
20260505005514 17 262 4.8 9.7 0.00 0.00 0.00 34 1008.9
20260505005014 17 274 4.8 9.7 0.00 0.00 0.00 34 1008.9
20260505004538 17 263 4.8 9.7 0.00 0.00 0.00 34 1008.9
20260505004013 17 276 4.8 11.3 0.00 0.00 0.00 32 1008.7
20260505003516 17 254 6.4 11.3 0.00 0.00 0.00 35 1008.7
20260505003037 17 260 4.8 12.9 0.00 0.00 0.00 33 1008.8
20260505002515 17 253 4.8 16.1 0.00 0.00 0.00 35 1008.8
20260505002015 17 263 11.3 20.9 0.00 0.00 0.00 32 1008.8
20260505001546 18 280 11.3 20.9 0.00 0.00 0.00 32 1008.8
20260505001012 18 269 6.4 14.5 0.00 0.00 0.00 32 1008.9
20260505000513 18 286 6.4 11.3 0.00 0.00 0.00 33 1008.9
20260505000054 18 275 6.4 11.3 0.00 0.00 0.00 32 1008.8
20260504235513 18 270 6.4 11.3 0.00 0.00 0.00 32 1008.9
20260504235011 18 267 4.8 11.3 0.00 0.00 0.00 33 1009.0
20260504234551 18 292 4.8 11.3 0.00 0.00 0.00 35 1008.9
20260504234013 18 254 3.2 8.0 0.00 0.00 0.00 33 1008.9
20260504233514 18 333 4.8 8.0 0.00 0.00 0.00 33 1008.8
20260504233054 18 286 1.6 6.4 0.00 0.00 0.00 35 1008.8
20260504232514 18 280 3.2 6.4 0.00 0.00 0.00 34 1009.0
20260504232010 19 306 1.6 4.8 0.00 0.00 0.00 33 1008.9
20260504231538 19 340 0.0 4.8 0.00 0.00 0.00 33 1008.9
20260504231013 19 40 1.6 9.7 0.00 0.00 0.00 32 1008.9
20260504230513 19 348 3.2 9.7 0.00 0.00 0.00 33 1008.9
20260504230035 19 342 3.2 8.0 0.00 0.00 0.00 35 1008.9
20260504225514 18 42 3.2 8.0 0.00 0.00 0.00 33 1008.9
20260504225017 18 53 4.8 8.0 0.00 0.00 0.00 33 1009.0
20260504224543 18 360 1.6 8.0 0.00 0.00 0.00 33 1009.0
20260504224011 18 17 3.2 8.0 0.00 0.00 0.00 34 1008.9
20260504223511 19 352 1.6 6.4 0.00 0.00 0.00 33 1009.1
20260504223052 19 355 3.2 6.4 0.00 0.00 0.00 32 1009.1
20260504222513 18 355 0.0 8.0 0.00 0.00 0.00 32 1009.2
20260504222016 18 342 3.2 8.0 0.00 0.00 0.00 33 1009.2
20260504221548 19 309 1.6 8.0 0.00 0.00 0.00 32 1009.3
20260504221014 19 310 1.6 8.0 0.00 0.00 0.00 31 1009.3
20260504220514 20 302 3.2 9.7 0.00 0.00 0.00 31 1009.3
20260504220050 20 38 4.8 9.7 0.00 0.00 0.00 34 1009.4
20260504215514 18 61 3.2 9.7 0.00 0.00 0.00 34 1009.4
20260504215014 18 15 3.2 8.0 0.00 0.00 0.00 34 1009.5
20260504214546 18 26 3.2 8.0 0.00 0.00 0.00 35 1009.5
20260504214017 18 72 1.6 6.4 0.00 0.00 0.00 35 1009.5
20260504213511 18 40 4.8 12.9 0.00 0.00 0.00 34 1009.5
20260504213051 18 319 6.4 12.9 0.00 0.00 0.00 32 1009.7
20260504212513 18 48 3.2 16.1 0.00 0.00 0.00 32 1009.8
20260504212013 19 319 4.8 16.1 0.00 0.00 0.00 32 1009.7
20260504211543 20 352 3.2 16.1 0.00 0.00 0.00 32 1009.8
20260504211014 20 321 3.2 11.3 0.00 0.00 0.00 32 1009.6
20260504210514 20 267 4.8 12.9 0.00 0.00 0.00 33 1009.7
20260504210051 20 136 8.0 12.9 0.00 0.00 0.00 28 1009.7
20260504205514 20 199 3.2 9.7 0.00 0.00 0.00 29 1009.8
20260504205011 20 178 3.2 11.3 0.00 0.00 0.00 27 1010.0
20260504204545 20 233 3.2 16.1 0.00 0.00 0.00 30 1010.1
20260504204013 20 340 4.8 16.1 0.00 0.00 0.00 32 1010.2
20260504203518 20 331 4.8 14.5 0.00 0.00 0.00 33 1010.1
20260504203053 20 170 4.8 17.7 0.00 0.00 0.00 31 1010.0
20260504202515 20 100 8.0 17.7 0.00 0.00 0.00 33 1010.0
20260504202014 20 136 6.4 14.5 0.00 0.00 0.00 33 1009.9
20260504201600 20 34 1.6 16.1 0.00 0.00 0.00 31 1010.0
20260504201011 20 51 6.4 16.1 0.00 0.00 0.00 34 1009.8
20260504200513 19 338 3.2 14.5 0.00 0.00 0.00 34 1010.0
20260504200047 19 28 6.4 14.5 0.00 0.00 0.00 33 1010.0
20260504195514 19 192 3.2 14.5 0.00 0.00 0.00 33 1010.2
20260504195014 19 355 8.0 14.5 0.00 0.00 0.00 31 1010.0
20260504194550 19 63 4.8 16.1 0.00 0.00 0.00 34 1010.2
20260504194015 19 317 4.8 16.1 0.00 0.00 0.00 32 1010.0
20260504193514 20 9 6.4 14.5 0.00 0.00 0.00 32 1010.1
20260504193047 20 34 4.8 14.5 0.00 0.00 0.00 32 1010.0
20260504192515 20 29 3.2 16.1 0.00 0.00 0.00 31 1010.2
20260504192014 19 63 6.4 16.1 0.00 0.00 0.00 32 1010.2
20260504191557 19 90 6.4 11.3 0.00 0.00 0.00 31 1010.2
20260504191015 19 355 4.8 9.7 0.00 0.00 0.00 32 1010.2
20260504190515 19 147 1.6 6.4 0.00 0.00 0.00 32 1010.6
20260504190113 18 262 1.6 6.4 0.00 0.00 0.00 28 1010.7
20260504185515 18 304 1.6 11.3 0.00 0.00 0.00 29 1010.6
20260504185018 18 232 3.2 11.3 0.00 0.00 0.00 25 1010.5
20260504184603 18 262 6.4 12.9 0.00 0.00 0.00 26 1010.7
20260504184014 17 236 4.8 12.9 0.00 0.00 0.00 27 1010.7
20260504183514 17 178 3.2 12.9 0.00 0.00 0.00 26 1010.8
20260504183046 17 250 4.8 12.9 0.00 0.00 0.00 25 1010.5
20260504182515 17 259 4.8 12.9 0.00 0.00 0.00 22 1010.7
20260504182013 17 242 4.8 12.9 0.00 0.00 0.00 27 1010.6
20260504181551 17 207 4.8 12.9 0.00 0.00 0.00 27 1010.5
20260504181018 17 253 4.8 11.3 0.00 0.00 0.00 29 1010.6
20260504180514 17 231 3.2 11.3 0.00 0.00 0.00 29 1010.5
20260504180045 17 223 3.2 9.7 0.00 0.00 0.00 30 1010.4
20260504175514 17 273 3.2 9.7 0.00 0.00 0.00 30 1010.6
20260504175015 17 279 3.2 11.3 0.00 0.00 0.00 31 1010.4
20260504174546 17 267 4.8 11.3 0.00 0.00 0.00 31 1010.4
20260504174015 17 250 4.8 8.0 0.00 0.00 0.00 32 1010.4
20260504173512 17 317 3.2 6.4 0.00 0.00 0.00 31 1010.4
20260504173054 17 250 3.2 6.4 0.00 0.00 0.00 33 1010.3
20260504172514 16 319 3.2 6.4 0.00 0.00 0.00 33 1010.3
20260504172014 16 249 3.2 11.3 0.00 0.00 0.00 32 1010.4
20260504171554 16 261 4.8 11.3 0.00 0.00 0.00 32 1010.4
20260504171019 16 300 3.2 9.7 0.00 0.00 0.00 31 1010.4
20260504170519 16 269 4.8 9.7 0.00 0.00 0.00 32 1010.3
20260504151015 15 258 1.6 6.4 0.00 0.00 0.00 30 1010.5
20260504150515 15 249 3.2 6.4 0.00 0.00 0.00 29 1010.5
20260504141014 14 238 3.2 8.0 0.00 0.00 0.00 26 1010.0
20260504140513 13 242 3.2 9.7 0.00 0.00 0.00 26 1010.0
20260504140105 13 269 3.2 9.7 0.00 0.00 0.00 26 1010.0
20260504130517 13 192 1.6 4.8 0.00 0.00 0.00 26 1009.5
20260504110513 14 196 3.2 9.7 0.00 0.00 0.00 26 1009.7
20260504100511 14 182 1.6 4.8 0.00 0.00 0.00 36 1009.9
20260504081535 14 228 1.6 8.0 0.00 0.00 0.00 43 1010.5
20260504081011 14 225 3.2 8.0 0.00 0.00 0.00 42 1010.3
20260504080510 14 214 3.2 8.0 0.00 0.00 0.00 42 1010.3
20260504050512 14 252 3.2 6.4 0.00 0.00 0.00 45 1011.2
20260504045511 14 263 4.8 12.9 0.00 0.00 0.00 45 1011.1
20260504045010 14 238 6.4 12.9 0.00 0.00 0.00 46 1011.0
20260504044535 13 269 6.4 9.7 0.00 0.00 0.00 46 1011.0
20260504044015 13 271 3.2 6.4 0.00 0.00 0.00 46 1011.0
20260504043510 14 265 4.8 6.4 0.00 0.00 0.00 45 1011.0
20260504043041 13 288 3.2 6.4 0.00 0.00 0.00 45 1011.0
20260504042513 13 261 3.2 6.4 0.00 0.00 0.00 46 1011.0
20260504042014 13 258 4.8 9.7 0.00 0.00 0.00 46 1011.0
20260504041534 13 263 4.8 9.7 0.00 0.00 0.00 47 1011.0
20260504041011 13 252 3.2 6.4 0.00 0.00 0.00 47 1011.0
20260504040512 13 261 3.2 6.4 0.00 0.00 0.00 47 1011.0
20260504040048 13 254 4.8 6.4 0.00 0.00 0.00 46 1011.0